Location: Culleoka
(33.1312°N, 96.4919°W)
Time: 17:40:07
(UTC+00:00)

Okean 1 - Pass Details

Date: 09 July 2022
Orbit: 532 x 552 km, 82.5° (Epoch: 18 August)

Event Time Altitude Azimuth Distance (km) Brightness Sun altitude
Rises 09:54:42 0° 333° (NNW) 2,680 7.0 -16.3°
Reaches altitude 10° 09:57:24 10° 313° (NW) 1,784 5.9 -15.9°
Enters shadow 09:59:36 17° 279° (W) 1,393 5.0 -15.6°
